Tracking 19847 objects as of 17-Sep-2019
HD Live streaming from Space Station
objects crossing your sky now

TITAN 3C TRANSTAGE DEB

Track TITAN 3C TRANSTAGE DEB now!
10-day predictions


NORAD ID: 1646
Int'l Code: 1965-082H
Perigee: 660.6 km
Apogee: 664.0 km
Inclination: 32.3 °
Period: 97.8 minutes
Semi major axis: 7033 km
RCS: 1.5264 m2 (large)
Launch date: October 15, 1965
Source: United States (US)
Launch site: AIR FORCE EASTERN TEST RANGE (AFETR)

Note: This is SATELLITE DEBRIS
aabbcc
Your satellite tracking list
Your tracking list is empty




NASA's NSSDC Master Catalog

Two Line Element Set (TLE):
1  1646U 65082H   19259.82673932 +.00000102 +00000-0 +10289-4 0  9991
2  1646 032.3119 048.2345 0002467 051.0618 309.0253 14.71849187856320
Source of the keplerian elements: AFSPC